Location: ????
(33.1659°N, 35.6604°E)
Time: 16:59:39
(UTC+00:00)

CZ-2C R/B - Pass Details

Date: 20 September 2019
Orbit: 705 x 907 km, 98.1° (Epoch: 14 October)

Event Time Altitude Azimuth Distance (km) Brightness Sun altitude
Exits shadow 17:23:51 24° 43° (NE) 1,646 4.5 -22.7°
Drops below altitude 10° 17:26:51 10° 13° (NNE) 2,448 5.6 -23.3°
Sets 17:29:36 0° 2° (N) 3,420 6.6 -23.9°
